User: anonymous   Login
Location: Hobi?a Gr?di?te
(45.4833°N, 22.7833°E)
Time: 16:41:48
(UTC+00:00)
Language:

PSLV R/B - Orbit

View from above orbital plane
View from above orbital plane
View from above satellite
View from above satellite

Ground track
Ground track

The orbit data is extracted from the following two-line orbital elements,

1 26960U 01049D   24111.10255668  .00027279  00000-0  11506-2 0  9991
2 26960  97.7413 155.5688 0038442 284.2445  75.4522 15.22589634231189
Epoch (UTC): 20 April 2024 02:27:40
Eccentricity: 0.0038442
inclination: 97.7413°
perigee height: 471 km
apogee height: 524 km
right ascension of ascending node: 155.5688°
argument of perigee: 284.2445°
revolutions per day: 15.22589634
mean anomaly at epoch: 75.4522°
orbit number at epoch: 23118

The dashed part of the orbit path shows where the satellite is in the earth's shadow,  

DLR